• Processing (Info)

  • MPEC 2019-S130 : 2019 SF5

    The following Minor Planet Electronic Circular may be linked-to from your own Web pages, but must not otherwise be redistributed electronically.

    A form allowing access to any MPEC is at the bottom of this page.


    Read MPEC 2019-S129 Read MPEC 2019-S131


    M.P.E.C. 2019-S130                           Issued 2019 September 28, 12:34 UT
    
         The Minor Planet Electronic Circulars contain information on unusual
             minor planets and routine data on comets.  They are published
        on behalf of Division F of the International Astronomical Union by the
              Minor Planet Center, Smithsonian Astrophysical Observatory,
                              Cambridge, MA 02138, U.S.A.
    
                 Prepared using the Tamkin Foundation Computer Network
    
                                  MPC@CFA.HARVARD.EDU
                URL https://www.minorplanetcenter.net/    ISSN 1523-6714
    
                                    2019 SF5                                 
    
    
    Observations:
         K19S05F* C2019 09 26.43475 00 14 14.936+05 43 32.51         21.5 wUES130F51
         K19S05F  C2019 09 26.44707 00 14 15.812+05 43 55.84         22.1 wUES130F51
         K19S05F  C2019 09 26.45941 00 14 16.696+05 44 19.36         22.4 wUES130F51
         K19S05F  C2019 09 26.47177 00 14 17.605+05 44 42.56         22.3 wUES130F51
         K19S05F KC2019 09 27.17020000 15 24.69 +06 06 53.8          22.0 VuES130H21
         K19S05F KC2019 09 27.17628400 15 25.14 +06 07 06.7          22.1 VuES130H21
         K19S05F  C2019 09 27.31810300 15 37.22 +06 11 49.1          21.9 GVES130H01
         K19S05F  C2019 09 27.32236100 15 37.56 +06 11 57.2          22.4 GVES130H01
         K19S05F  C2019 09 27.33400000 15 38.46 +06 12 20.2          21.2 GVES130H01
         K19S05F  C2019 09 27.33857200 15 38.83 +06 12 29.0          21.5 GVES130H01
         K19S05F  C2019 09 27.43758200 15 48.964+06 15 55.82         22.1 GVES130F51
         K19S05F  C2019 09 27.44893700 15 49.831+06 16 18.60         22.1 GVES130F51
         K19S05F  C2019 09 27.46031800 15 50.700+06 16 41.03         21.8 GVES130F51
         K19S05F  C2019 09 27.47166600 15 51.572+06 17 03.19         21.9 GVES130F51
         K19S05F KC2019 09 28.43671 00 17 25.74 +06 49 28.9          21.2 RoES130291
         K19S05F KC2019 09 28.44690 00 17 26.59 +06 49 50.7          21.8 RoES130291
         K19S05F KC2019 09 28.45708 00 17 27.52 +06 50 11.4          22.1 RoES130291
    
    Observer details:
    291 LPL/Spacewatch II.  Observer J. V. Scotti.  1.8-m f/2.7 reflector + CCD.
    F51 Pan-STARRS 1, Haleakala.  Observers J. Bulger, T. Lowe, A. Schultz, M. 
       Willman, K. Chambers, E. Magnier.  Measurers K. Chambers, S. Chastel, T. de 
       Boer, L. Denneau, J. Fairlamb, H. Flewelling, M. Huber, C.-C. Lin, E. 
       Magnier, Y. Ramanjooloo, R. Wainscoat, R. Weryk.  1.8-m Ritchey-Chretien + 
       CCD.
    H01 Magdalena Ridge Observatory, Socorro.  Observers W. H. Ryan, E. V. Ryan.  
        Measurer W. H. Ryan.  2.4-m f/8.9 Ritchey-Chretien + CCD.
    H21 Astronomical Research Observatory, Westfield.  Observer R. Holmes.  
        Measurers S. Foglia, L. Buzzi, T. Linder, R. Holmes.  1.3-m f/4.0 
       astrograph + CCD.
    
    Orbital elements:
    2019 SF5                                                 Earth MOID = 0.0899 AU
    Epoch 2019 Apr. 27.0 TT = JDT 2458600.5                 Veres
    M 305.61104              (2000.0)            P               Q
    n   0.28129255     Peri.   55.84451     +0.70325755     -0.71089286
    a   2.3069095      Node   349.45557     +0.63752355     +0.63542975
    e   0.5344620      Incl.    2.42931     +0.31463082     +0.30143056
    P   3.50           H   25.1           G   0.15           U   7
    Residuals in seconds of arc
    190926 F51  0.1+  0.0     190927 H01  0.0   0.2+    190927 F51  0.0   0.1+
    190926 F51  0.1-  0.0     190927 H01  0.1+  0.1-    190927 F51  0.0   0.2-
    190926 F51  0.2-  0.1+    190927 H01  0.1-  0.0     190928 291  0.5+  0.5-
    190926 F51  0.0   0.0     190927 H01  0.1+  0.1-    190928 291  0.4-  0.4+
    190927 H21  0.3+  0.1-    190927 F51  0.0   0.2-    190928 291  0.3-  0.3+
    190927 H21  0.2-  0.8+    190927 F51  0.0   0.1+
    
    Ephemeris:
    2019 SF5                 a,e,i = 2.31, 0.53, 2                   q = 1.0740
    Date    TT    R. A. (2000) Decl.     Delta      r    Elong.  Phase     V
    2019 08 29    23 46 33.1 -03 03 43   0.3502  1.3436   159.4    15.4    24.3
    ...
    2019 09 13    23 58 41.4 +00 22 27   0.2480  1.2512   169.8     8.2    23.1
    ...
    2019 09 21    00 06 56.6 +03 11 09   0.2038  1.2072   174.2     4.9    22.5
    ...
    2019 09 27    00 15 07.4 +06 01 48   0.1751  1.1772   175.2     4.1    22.0
    2019 09 28    00 16 44.0 +06 34 55   0.1707  1.1724   175.1     4.2    22.0
    2019 09 29    00 18 25.9 +07 09 33   0.1664  1.1678   174.9     4.3    21.9
    ...
    2019 10 05    00 30 53.6 +11 13 09   0.1427  1.1420   172.7     6.3    21.6
    ...
    2019 10 13    00 56 14.8 +18 30 31   0.1175  1.1133   168.4    10.4    21.3
    ...
    2019 10 28    02 30 23.1 +36 28 49   0.09346 1.0797   155.8    22.2    21.2
    
    A. U. Tomatic                (C) Copyright 2019 MPC           M.P.E.C. 2019-S130
    


    Read MPEC 2019-S129 Read MPEC 2019-S131


    MPEC number:

    Enter an MPEC number in one of the following forms:

    • 1997-B01 (the full form)
    • J97B01 (the packed version of the full form)
    • B01 (the abbreviated form)